Cleveland, OH

10:08 AM EST on December 05, 2016 (GMT -0500)
Burke Lakefront

Weather History for KBKL - November, 2011

Change the Weather History Date:

Wednesday, November 23, 2011

  Actual Average Record
Temperature  
Mean Temperature 44 °F -  
Max Temperature 48 °F 46 °F 72 °F (1999)
Min Temperature 39 °F 35 °F 21 °F (2000)
Degree Days  
Heating Degree Days 22    
Moisture  
Dew Point 40 °F    
Average Humidity 85    
Maximum Humidity 93    
Minimum Humidity 68    
Precipitation  
Precipitation 0.21 in - - ()
Sea Level Pressure  
Sea Level Pressure 29.92 in    
Wind  
Wind Speed 17 mph (NNW)    
Max Wind Speed 28 mph    
Max Gust Speed 38 mph    
Visibility 8 miles    
Events Rain    
Averages and records for this station are not official NWS values.
T = Trace of Precipitation, MM = Missing Value Source: NWS Daily Summary

Daily Weather History Graph

Daily Weather History Graph

Search for Another Location

Airport or City:

Trip Planner

Search our weather history database for the weather conditions in past years. The results will help you decide how hot, cold, wet, or windy it might be!

Date:

Astronomy

Nov. 23, 2011 Rise Set
Actual Time 7:24 AM EST 5:01 PM EST
Civil Twilight 6:54 AM EST 5:31 PM EST
Nautical Twilight 6:20 AM EST 6:05 PM EST
Astronomical Twilight 5:47 AM EST 6:38 PM EST
Moon 5:26 AM EST (11/23) 3:42 PM EST (11/23)
Length of Visible Light 10h 37m
Length of Day
9h 36m
Waning Crescent, 4% of the Moon is Illuminated
Nov 23
Waning Crescent
Nov 25
New
Dec 2
First Quarter
Dec 10
Full
Dec 17
Last Quarter

Hourly Weather History & Observations

Time (EST) Temp. Windchill Dew Point Humidity Pressure Visibility Wind Dir Wind Speed Gust Speed Precip Events Conditions
12:06 AM 48.2 °F - 46.4 °F 93% 29.56 in 4.0 mi North 12.7 mph - 0.02 in Rain Rain
12:53 AM 48.2 °F - 46.4 °F 93% 29.57 in 10.0 mi NNE 10.4 mph - N/A   Overcast
1:00 AM 48.2 °F - 46.4 °F 93% 29.58 in 10.0 mi NE 11.5 mph - N/A   Overcast
1:29 AM 46.4 °F 39.8 °F 44.6 °F 93% 29.60 in 7.0 mi NNE 16.1 mph - N/A   Overcast
1:53 AM 46.0 °F 38.0 °F 44.1 °F 93% 29.62 in 5.0 mi NE 21.9 mph 27.6 mph 0.01 in   Overcast
2:53 AM 44.1 °F 34.8 °F 42.1 °F 93% 29.66 in 3.0 mi NNE 25.3 mph 34.5 mph 0.01 in   Overcast
3:10 AM 42.8 °F 32.7 °F 41.0 °F 93% 29.67 in 2.5 mi North 27.6 mph 38.0 mph 0.01 in   Overcast
3:26 AM 42.8 °F 32.7 °F 41.0 °F 93% 29.67 in 3.0 mi North 27.6 mph 35.7 mph 0.01 in   Overcast
3:39 AM 42.8 °F 33.3 °F 39.2 °F 87% 29.69 in 2.0 mi North 24.2 mph 34.5 mph 0.01 in   Overcast
3:53 AM 42.8 °F 32.9 °F 39.2 °F 87% 29.70 in 2.0 mi North 26.5 mph 33.4 mph N/A   Overcast
4:20 AM 42.8 °F 33.3 °F 39.2 °F 87% 29.72 in 3.0 mi North 24.2 mph 34.5 mph 0.03 in Rain Rain
4:51 AM 42.8 °F 34.0 °F 39.2 °F 87% 29.76 in 5.0 mi North 20.7 mph 32.2 mph 0.10 in Rain Rain
4:53 AM 42.1 °F 32.3 °F 39.9 °F 92% 29.77 in 5.0 mi North 24.2 mph 32.2 mph 0.10 in Rain Rain
5:00 AM 42.8 °F 33.3 °F 39.2 °F 87% 29.76 in 5.0 mi North 24.2 mph 29.9 mph 0.02 in Rain Rain
5:07 AM 42.8 °F 33.8 °F 39.2 °F 87% 29.77 in 5.0 mi North 21.9 mph 29.9 mph 0.03 in Rain Rain
5:53 AM 43.0 °F 33.3 °F 39.9 °F 89% 29.82 in 7.0 mi NNW 25.3 mph 32.2 mph 0.09 in Rain Light Rain
6:13 AM 42.8 °F 32.7 °F 39.2 °F 87% 29.83 in 10.0 mi NNW 27.6 mph 35.7 mph 0.00 in Rain Light Rain
6:53 AM 44.1 °F 35.0 °F 39.0 °F 82% 29.88 in 10.0 mi North 24.2 mph 36.8 mph 0.00 in   Overcast
7:02 AM 44.6 °F 35.5 °F 39.2 °F 81% 29.87 in 10.0 mi North 25.3 mph 35.7 mph N/A   Overcast
7:53 AM 45.0 °F 36.4 °F 41.0 °F 86% 29.94 in 10.0 mi NNW 23.0 mph 32.2 mph N/A   Overcast
8:33 AM 44.6 °F 35.9 °F 41.0 °F 87% 29.97 in 10.0 mi NNW 23.0 mph 29.9 mph N/A   Overcast
8:53 AM 45.0 °F 37.4 °F 41.0 °F 86% 29.99 in 10.0 mi NNW 18.4 mph 26.5 mph N/A   Overcast
9:53 AM 45.0 °F 37.6 °F 41.0 °F 86% 30.03 in 10.0 mi NNW 17.3 mph 24.2 mph N/A   Overcast
10:53 AM 45.0 °F 37.4 °F 41.0 °F 86% 30.06 in 10.0 mi NNW 18.4 mph - N/A   Overcast
11:53 AM 46.0 °F 38.8 °F 42.1 °F 86% 30.07 in 10.0 mi North 18.4 mph - N/A   Overcast
12:16 PM 46.4 °F 39.8 °F 39.2 °F 76% 30.07 in 10.0 mi North 16.1 mph - N/A   Overcast
12:53 PM 45.0 °F 38.9 °F 39.9 °F 82% 30.08 in 10.0 mi NNW 12.7 mph - N/A   Mostly Cloudy
1:01 PM 44.6 °F 38.4 °F 39.2 °F 81% 30.08 in 10.0 mi NNW 12.7 mph - N/A   Mostly Cloudy
1:14 PM 46.4 °F 41.5 °F 39.2 °F 76% 30.08 in 10.0 mi NNW 10.4 mph - N/A   Mostly Cloudy
1:53 PM 46.0 °F 40.6 °F 39.9 °F 79% 30.10 in 10.0 mi NW 11.5 mph - N/A   Mostly Cloudy
2:53 PM 46.9 °F - 39.9 °F 77% 30.12 in 10.0 mi WNW 11.5 mph - N/A   Mostly Cloudy
3:53 PM 44.6 °F 38.8 °F 39.2 °F 81% 30.12 in 10.0 mi WNW 11.5 mph - N/A   Mostly Cloudy
4:17 PM 44.6 °F 39.2 °F 39.2 °F 81% 30.13 in 10.0 mi West 10.4 mph - N/A   Scattered Clouds
4:53 PM 45.0 °F 38.9 °F 37.9 °F 76% 30.15 in 10.0 mi West 12.7 mph - N/A   Clear
5:53 PM 43.0 °F 37.2 °F 37.9 °F 82% 30.16 in 10.0 mi WSW 10.4 mph - N/A   Clear
6:53 PM 39.0 °F 33.4 °F 35.1 °F 86% 30.18 in 10.0 mi SW 8.1 mph - N/A   Clear
7:53 PM 39.9 °F 37.8 °F 34.0 °F 79% 30.19 in 10.0 mi South 3.5 mph - N/A   Clear
8:53 PM 39.9 °F 33.4 °F 30.0 °F 68% 30.20 in 10.0 mi SW 10.4 mph - N/A   Clear
9:53 PM 41.0 °F 34.3 °F 33.8 °F 76% 30.19 in 10.0 mi SW 11.5 mph - N/A   Clear
10:53 PM 41.0 °F 34.7 °F 34.0 °F 76% 30.20 in 10.0 mi SW 10.4 mph - N/A   Clear
11:53 PM 39.9 °F 33.4 °F 33.1 °F 77% 30.21 in 10.0 mi SW 10.4 mph - N/A   Clear